Mytilini, Greece

6:30 AM EEST on September 22, 2018 (GMT +0300)
Odysseas Elytis

Weather History for LGMT - September, 2018

Change the Weather History Date:

Friday, September 14, 2018

  Actual Average Record
Temperature  
Mean Temperature 75 °F -  
Max Temperature 81 °F 76 °F 91 °F (2008)
Min Temperature 69 °F 62 °F 60 °F (1997)
Cooling Degree Days 10    
Growing Degree Days 25 (Base 50)    
Moisture  
Dew Point 63 °F    
Average Humidity 65    
Maximum Humidity 78    
Minimum Humidity 45    
Precipitation  
Precipitation 0.00 in 0.03 in - ()
Sea Level Pressure  
Sea Level Pressure 29.97 in    
Wind  
Wind Speed 4 mph ()    
Max Wind Speed 12 mph    
Max Gust Speed -    
Visibility 6.6 miles    
Events      
Averages and records for this station are not official NWS values.
T = Trace of Precipitation, MM = Missing Value Source: Averaged Metar Reports

Daily Weather History Graph

Daily Weather History Graph

Search for Another Location

Airport or City:

Astronomy

Sep. 14, 2018 Rise Set
Actual Time 6:53 AM EEST 7:24 PM EEST
Civil Twilight 6:26 AM EEST 7:50 PM EEST
Nautical Twilight 5:55 AM EEST 8:22 PM EEST
Astronomical Twilight 5:22 AM EEST 8:54 PM EEST
Moon 11:47 AM EEST (9/14) 10:32 PM EEST (9/14)
Length of Visible Light 13h 23m
Length of Day
12h 30m
Waxing Crescent, 25% of the Moon is Illuminated
Sep 14
Waxing Crescent
Sep 17
First Quarter
Sep 25
Full
Oct 2
Last Quarter
Oct 9
New

Hourly Weather History & Observations

Time (EEST) Temp. Heat Index Dew Point Humidity Pressure Visibility Wind Dir Wind Speed Gust Speed Precip Events Conditions
4:50 AM 69.8 °F - 62.6 °F 78% 29.95 in - Variable 2.3 mph - N/A   Clear
5:20 AM 69.8 °F - 62.6 °F 78% 29.95 in - Variable 2.3 mph - N/A   Clear
5:50 AM 69.8 °F - 62.6 °F 78% 29.95 in - Calm Calm - N/A   Clear
6:00 AM 69 °F - 62 °F 71% 29.96 in 6 mi Calm Calm - -  
6:20 AM 69.8 °F - 62.6 °F 78% 29.95 in - Calm Calm - N/A   Clear
6:50 AM 69.8 °F - 62.6 °F 78% 29.95 in - Calm Calm - N/A   Clear
7:20 AM 69.8 °F - 62.6 °F 78% 29.95 in - Calm Calm - N/A   Clear
7:50 AM 69.8 °F - 62.6 °F 78% 29.95 in - Calm Calm - N/A   Clear
8:20 AM 71.6 °F - 64.4 °F 78% 29.95 in - Variable 2.3 mph - N/A   Clear
8:50 AM 71.6 °F - 64.4 °F 78% 29.95 in - NNW 5.8 mph - N/A   Clear
9:00 AM 72 °F - 64 °F 68% 29.97 in 6 mi NNW 5.8 mph - -  
9:20 AM 71.6 °F - 64.4 °F 78% 29.95 in - NNW 8.1 mph - N/A   Clear
9:50 AM 73.4 °F - 64.4 °F 73% 29.95 in - NNW 8.1 mph - N/A   Clear
10:20 AM 75.2 °F - 66.2 °F 73% 29.95 in - North 9.2 mph - N/A   Clear
10:50 AM 75.2 °F - 66.2 °F 73% 29.98 in - NNW 10.4 mph - N/A   Clear
11:20 AM 75.2 °F - 66.2 °F 73% 29.98 in - North 9.2 mph - N/A   Clear
11:50 AM 77.0 °F - 66.2 °F 69% 29.98 in - NNW 8.1 mph - N/A   Clear
12:00 PM 77 °F - 66 °F 61% 29.99 in 6 mi NNW 8.1 mph - -  
12:20 PM 77.0 °F - 66.2 °F 69% 29.98 in - North 9.2 mph - N/A   Clear
12:50 PM 77.0 °F - 64.4 °F 65% 29.98 in - NNW 10.4 mph - N/A   Clear
1:20 PM 78.8 °F - 62.6 °F 57% 29.98 in - NNW 10.4 mph - N/A   Clear
1:50 PM 78.8 °F - 62.6 °F 57% 29.98 in - North 11.5 mph - N/A   Clear
2:20 PM 80.6 °F 81.8 °F 62.6 °F 54% 29.98 in - North 11.5 mph - N/A   Clear
2:50 PM 80.6 °F 82.3 °F 64.4 °F 58% 29.98 in - NNW 9.2 mph - N/A   Clear
3:00 PM 81 °F - 65 °F 48% 29.99 in 9 mi NNW 9.2 mph - -  
3:20 PM 80.6 °F 82.3 °F 64.4 °F 58% 29.98 in 6.2 mi NNW 9.2 mph - N/A   Partly Cloudy
3:50 PM 80.6 °F 82.3 °F 64.4 °F 58% 29.98 in 6.2 mi North 9.2 mph - N/A   Partly Cloudy
4:20 PM 80.6 °F 82.3 °F 64.4 °F 58% 29.98 in 6.2 mi North 9.2 mph - N/A   Partly Cloudy
4:50 PM 80.6 °F 82.3 °F 64.4 °F 58% 29.98 in 6.2 mi North 10.4 mph - N/A   Partly Cloudy
5:20 PM 80.6 °F 82.3 °F 64.4 °F 58% 29.98 in 6.2 mi North 9.2 mph - N/A   Partly Cloudy
5:50 PM 80.6 °F 82.3 °F 64.4 °F 58% 29.98 in 6.2 mi NNW 8.1 mph - N/A   Partly Cloudy
6:00 PM 81 °F - 63 °F 45% 29.98 in 9 mi NNW 8.1 mph - -  
6:20 PM 80.6 °F 82.3 °F 64.4 °F 58% 29.95 in - NNW 6.9 mph - N/A   Clear
6:50 PM 80.6 °F 82.3 °F 64.4 °F 58% 29.95 in - NNW 6.9 mph - N/A   Clear
7:20 PM 78.8 °F - 64.4 °F 61% 29.95 in - Calm Calm - N/A   Clear
7:50 PM 77.0 °F - 62.6 °F 61% 29.95 in - Calm Calm - N/A   Clear
8:20 PM 77.0 °F - 62.6 °F 61% 29.95 in - Calm Calm - N/A   Clear
8:50 PM 75.2 °F - 59.0 °F 57% 29.98 in - NW 5.8 mph - N/A   Clear
9:00 PM 75 °F - 59 °F 48% 29.98 in 6 mi NW 5.8 mph - -  
9:20 PM 75.2 °F - 59.0 °F 57% 29.98 in - NW 5.8 mph - N/A   Clear
9:50 PM 75.2 °F - 59.0 °F 57% 29.98 in - Calm Calm - N/A   Clear
10:20 PM 75.2 °F - 59.0 °F 57% 29.98 in - Calm Calm - N/A   Clear
10:50 PM 73.4 °F - 59.0 °F 61% 29.98 in - Calm Calm - N/A   Clear